Location: Mentone
(34.5413°N, 85.5351°W)
Time: 20:29:35
(UTC-05:00)

AO-Echo - Visible Passes

Search period start: 23 August 2016 00:00
Search period end: 02 September 2016 00:00
Orbit: 693 x 812 km, 98.3° (Epoch: 22 August)

Date Brightness Start Highest point End Pass type
(mag) Time Alt. Az. Time Alt. Az. Time Alt. Az.
23 Aug ? 02:52:41 10° N 02:53:38 15° NNW 02:53:38 15° NNW visible
24 Aug ? 02:11:52 10° NNE 02:12:37 15° NNE 02:12:37 15° NNE visible
25 Aug ? 03:10:59 10° NNW 03:11:31 12° NNW 03:11:31 12° NNW visible
26 Aug ? 02:29:45 10° N 02:30:30 15° N 02:30:30 15° N visible
27 Aug ? 01:49:23 10° NNE 01:49:29 11° NNE 01:49:29 11° NNE visible
28 Aug ? 02:47:48 10° N 02:48:24 13° N 02:48:24 13° N visible
29 Aug ? 02:07:04 10° NNE 02:07:23 12° NNE 02:07:23 12° NNE visible
30 Aug ? 03:06:01 10° NNW 03:06:17 11° NNW 03:06:17 11° NNW visible
31 Aug ? 02:24:55 10° N 02:25:16 12° N 02:25:16 12° N visible
